ACA21G KIND-CYYZ

Flight info

Callsign ACA21G
Flight time N/A
Altitude 37000
Route MEARZ7 MZZ DCT FWA DCT CRL DCT QWERI NUBER6
Aircraft A20N/M-SDE2E3FGHIRWXY/LB1

Departure

Time 2026-05-07 01:43
Airport Indianapolis International Airport (KIND)

Arrival

Time N/A
Airport Toronto Pearson International Airport (CYYZ)
Time Latitude Longitude Altitude Speed Heading
2026-05-07 01:14 39.71785 -86.29774 774 ft 0 kts 140°
2026-05-07 01:28 39.71793 -86.29781 774 ft 2 kts 141°
2026-05-07 01:28 39.71804 -86.29793 774 ft 2 kts 140°
2026-05-07 01:28 39.71815 -86.29805 774 ft 2 kts 141°
2026-05-07 01:28 39.71826 -86.29817 773 ft 2 kts 140°
2026-05-07 01:29 39.71835 -86.29826 773 ft 0 kts 140°
2026-05-07 01:29 39.71845 -86.29838 773 ft 2 kts 124°
2026-05-07 01:29 39.71851 -86.29855 773 ft 2 kts 107°
2026-05-07 01:29 39.71852 -86.29862 772 ft 0 kts 100°
2026-05-07 01:31 39.71854 -86.29875 772 ft 2 kts 89°
2026-05-07 01:32 39.71851 -86.29896 772 ft 2 kts 70°
2026-05-07 01:32 39.71844 -86.29913 771 ft 2 kts 52°
2026-05-07 01:32 39.71833 -86.29927 771 ft 0 kts 42°
2026-05-07 01:32 39.71832 -86.29929 771 ft 0 kts 43°
2026-05-07 01:35 39.71833 -86.29928 771 ft 0 kts 43°
2026-05-07 01:35 39.71838 -86.29922 771 ft 1 kts 41°
2026-05-07 01:36 39.71845 -86.29915 771 ft 2 kts 39°
2026-05-07 01:36 39.71851 -86.29908 771 ft 2 kts 39°
2026-05-07 01:37 39.71866 -86.29893 772 ft 3 kts 38°
2026-05-07 01:37 39.71906 -86.29851 773 ft 9 kts 38°
2026-05-07 01:37 39.71959 -86.29796 774 ft 9 kts 40°
2026-05-07 01:37 39.72012 -86.29740 775 ft 9 kts 38°
2026-05-07 01:38 39.72055 -86.29696 776 ft 6 kts 39°
2026-05-07 01:38 39.72102 -86.29646 777 ft 6 kts 39°
2026-05-07 01:38 39.72142 -86.29609 777 ft 6 kts 24°
2026-05-07 01:38 39.72192 -86.29620 777 ft 8 kts 323°
2026-05-07 01:39 39.72243 -86.29684 776 ft 8 kts 316°
2026-05-07 01:39 39.72287 -86.29681 776 ft 6 kts 36°
2026-05-07 01:39 39.72325 -86.29636 777 ft 7 kts 45°
2026-05-07 01:39 39.72365 -86.29584 778 ft 8 kts 45°
2026-05-07 01:40 39.72409 -86.29528 779 ft 8 kts 45°
2026-05-07 01:40 39.72457 -86.29467 780 ft 9 kts 45°
2026-05-07 01:40 39.72508 -86.29402 781 ft 10 kts 44°
2026-05-07 01:40 39.72561 -86.29334 783 ft 10 kts 45°
2026-05-07 01:41 39.72613 -86.29269 784 ft 8 kts 44°
2026-05-07 01:41 39.72667 -86.29259 784 ft 9 kts 327°
2026-05-07 01:41 39.72720 -86.29325 783 ft 9 kts 313°
2026-05-07 01:41 39.72741 -86.29385 782 ft 6 kts 263°
2026-05-07 01:42 39.72706 -86.29450 780 ft 9 kts 224°
2026-05-07 01:42 39.72485 -86.29730 775 ft 82 kts 225°
2026-05-07 01:42 39.71869 -86.30512 760 ft 149 kts 224°
2026-05-07 01:42 39.71014 -86.31603 963 ft 182 kts 227°
2026-05-07 01:43 39.70076 -86.32808 1515 ft 195 kts 228°
2026-05-07 01:43 39.69056 -86.34096 2373 ft 198 kts 230°
2026-05-07 01:43 39.67971 -86.35492 3033 ft 212 kts 230°
2026-05-07 01:43 39.66812 -86.36990 3618 ft 229 kts 229°
2026-05-07 01:44 39.65545 -86.38627 4235 ft 247 kts 229°
2026-05-07 01:44 39.64236 -86.40314 4866 ft 262 kts 229°
2026-05-07 01:44 39.62821 -86.42134 5793 ft 267 kts 228°
2026-05-07 01:44 39.61426 -86.43926 6818 ft 267 kts 228°
2026-05-07 01:45 39.60308 -86.45901 7759 ft 263 kts 251°
2026-05-07 01:45 39.60004 -86.48389 8754 ft 260 kts 276°
2026-05-07 01:45 39.60615 -86.50721 9733 ft 262 kts 301°
2026-05-07 01:45 39.61979 -86.52441 10609 ft 272 kts 324°
2026-05-07 01:46 39.63943 -86.53222 11125 ft 302 kts 352°
2026-05-07 01:46 39.66144 -86.52607 11556 ft 335 kts 17°
2026-05-07 01:46 39.68337 -86.51220 11974 ft 354 kts 21°
2026-05-07 01:46 39.70545 -86.49738 12320 ft 370 kts 21°
2026-05-07 01:47 39.72948 -86.48128 12779 ft 380 kts 20°
2026-05-07 01:47 39.75358 -86.46529 12986 ft 384 kts 20°
2026-05-07 01:47 39.77792 -86.44936 12990 ft 383 kts 20°
2026-05-07 01:47 39.80216 -86.43354 12990 ft 383 kts 20°
2026-05-07 01:48 39.82760 -86.41699 13238 ft 392 kts 20°
2026-05-07 01:48 39.85381 -86.39997 14087 ft 392 kts 20°
2026-05-07 01:48 39.88009 -86.38287 14820 ft 396 kts 19°
2026-05-07 01:48 39.90678 -86.36557 15418 ft 404 kts 19°
2026-05-07 01:49 39.93421 -86.34775 16057 ft 409 kts 18°
2026-05-07 01:49 39.96146 -86.32990 16710 ft 415 kts 19°
2026-05-07 01:49 39.98790 -86.30956 17329 ft 426 kts 26°
2026-05-07 01:49 40.01297 -86.28515 17840 ft 440 kts 33°
2026-05-07 01:50 40.03719 -86.25623 18367 ft 450 kts 37°
2026-05-07 01:50 40.06155 -86.22511 18906 ft 456 kts 38°
2026-05-07 01:50 40.08606 -86.19373 19391 ft 463 kts 37°
2026-05-07 01:50 40.11105 -86.16201 19884 ft 469 kts 37°
2026-05-07 01:51 40.13744 -86.12887 20429 ft 474 kts 37°
2026-05-07 01:51 40.16250 -86.09752 20936 ft 480 kts 37°
2026-05-07 01:51 40.18929 -86.06393 21452 ft 485 kts 36°
2026-05-07 01:51 40.21592 -86.03051 21967 ft 490 kts 37°
2026-05-07 01:52 40.24154 -85.99826 22436 ft 495 kts 36°
2026-05-07 01:52 40.26808 -85.96479 22884 ft 501 kts 36°
2026-05-07 01:52 40.29459 -85.93129 23388 ft 504 kts 37°
2026-05-07 01:52 40.32180 -85.89695 23802 ft 510 kts 37°
2026-05-07 01:53 40.34960 -85.86181 24236 ft 515 kts 36°
2026-05-07 01:53 40.37671 -85.82742 24716 ft 518 kts 36°
2026-05-07 01:53 40.40433 -85.79226 25441 ft 514 kts 35°
2026-05-07 01:53 40.43247 -85.75642 26339 ft 505 kts 34°
2026-05-07 01:54 40.45873 -85.72288 27218 ft 496 kts 34°
2026-05-07 01:54 40.48546 -85.68938 27818 ft 493 kts 32°
2026-05-07 01:54 40.51403 -85.65745 28170 ft 492 kts 26°
2026-05-07 01:54 40.54255 -85.62837 28552 ft 496 kts 28°
2026-05-07 01:55 40.54875 -85.62161 28631 ft 500 kts 31°
2026-05-07 01:55 40.57402 -85.58781 29016 ft 515 kts 40°
2026-05-07 01:55 40.59986 -85.54741 29426 ft 520 kts 42°
2026-05-07 01:55 40.62467 -85.50766 29691 ft 526 kts 41°
2026-05-07 01:56 40.65063 -85.46691 29975 ft 531 kts 40°
2026-05-07 01:56 40.67670 -85.42656 30158 ft 521 kts 39°
2026-05-07 01:56 40.70273 -85.38725 30191 ft 531 kts 39°
2026-05-07 01:56 40.72886 -85.34789 30538 ft 533 kts 40°
2026-05-07 01:57 40.75501 -85.30864 30838 ft 535 kts 40°
2026-05-07 01:57 40.78155 -85.26866 31086 ft 539 kts 40°
2026-05-07 01:57 40.80822 -85.22863 31296 ft 543 kts 40°
2026-05-07 01:57 40.83510 -85.18792 31605 ft 544 kts 40°
2026-05-07 01:58 40.85710 -85.15473 31814 ft 547 kts 40°